Location: Newark
(34.0111°N, 88.4892°W)
Time: 09:06:59
(UTC+00:00)

DOVE 4 - Visible Passes

Search period start: 06 June 2020 00:00
Search period end: 16 June 2020 00:00
Orbit: 589 x 801 km, 97.8° (Epoch: 05 June)

Date Brightness Start Highest point End Pass type
(mag) Time Alt. Az. Time Alt. Az. Time Alt. Az.
06 Jun ? 07:28:43 10° NNE 07:32:35 55° NE 07:32:35 55° NE visible
07 Jun ? 06:33:22 10° ENE 06:34:47 14° ENE 06:34:47 14° ENE visible
07 Jun ? 08:09:23 10° N 08:13:31 40° WNW 08:13:31 40° WNW visible
08 Jun ? 07:12:18 10° NNE 07:15:42 37° ENE 07:15:42 37° ENE visible
08 Jun ? 08:51:17 10° NNW 08:53:51 15° WNW 08:54:26 15° WNW visible
09 Jun ? 07:52:37 10° N 07:56:38 57° NW 07:56:38 57° NW visible
10 Jun ? 06:56:04 10° NE 06:58:49 24° ENE 06:58:49 24° ENE visible
10 Jun ? 08:33:54 10° NNW 08:37:23 22° WNW 08:37:33 22° WNW visible
11 Jun ? 07:35:58 10° NNE 07:39:44 60° NNE 07:39:44 60° NNE visible
12 Jun ? 06:40:10 10° NE 06:41:56 16° ENE 06:41:56 16° ENE visible
12 Jun ? 08:16:51 10° N 08:20:39 32° WNW 08:20:39 32° WNW visible
13 Jun ? 07:19:27 10° NNE 07:22:50 42° NE 07:22:50 42° NE visible
13 Jun ? 08:59:26 10° NW 09:00:53 11° WNW 09:01:34 11° WNW visible
14 Jun ? 07:59:57 10° N 08:03:45 46° NW 08:03:45 46° NW visible
15 Jun ? 07:03:07 10° NNE 07:05:56 28° ENE 07:05:56 28° ENE visible
15 Jun ? 08:41:33 10° NNW 08:44:25 17° WNW 08:44:39 17° WNW visible
